1519041600.89,62392,11.56,73172.5,1.85,-35.71,-35.53,0,*7D
1519041602.12,62393,11.56,73168.0,1.85,-37.15,-37.03,0,*7B
1519041603.34,62394,11.56,73170.0,1.85,-37.03,-36.97,0,*77
1519041604.59,62395,11.56,73174.8,1.85,-35.71,-35.35,0,*7A
1519041605.84,62396,11.56,73168.0,1.85,-36.13,-35.89,0,*79
1519041607.1,62397,11.56,73168.5,1.85,-36.07,-35.83,0,*77
1519041608.34,62398,11.56,73168.5,1.85,-36.01,-35.89,0,*74
1519041609.59,62399,11.56,73170.3,1.85,-36.13,-35.89,0,*76
1519041610.86,62400,11.56,73170.5,1.85,-36.61,-36.61,0,*71
1519041612.11,62401,11.56,73174.5,1.85,-36.85,-36.79,0,*73
1519041613.37,62402,11.56,73172.0,1.85,-36.25,-36.01,0,*75
1519041614.61,62403,11.56,73170.8,1.85,-36.07,-35.89,0,*77
1519041615.86,62404,11.56,73168.0,1.85,-35.83,-35.47,0,*7D
1519041617.09,62405,11.56,73164.0,1.83,-35.89,-35.65,0,*70
1519041618.31,62406,11.56,73168.5,1.85,-36.97,-36.85,0,*74
1519041619.56,62407,11.56,73170.5,1.85,-36.61,-36.43,0,*76
1519041620.82,62408,11.56,73174.0,1.85,-36.07,-35.83,0,*76
1519041622.07,62409,11.56,73168.3,1.85,-35.89,-35.65,0,*7A
1519041623.32,62410,11.56,73168.0,1.85,-36.01,-35.65,0,*71
1519041624.56,62411,11.56,73170.0,1.85,-35.65,-35.47,0,*71
1519041625.82,62412,11.56,73170.0,1.85,-36.07,-35.83,0,*7D
1519041627.07,62413,11.56,73168.3,1.85,-36.49,-36.31,0,*7C
1519041628.32,62414,11.56,73172.0,1.85,-36.97,-36.79,0,*74
1519041629.57,62415,11.56,73168.8,1.85,-36.61,-36.43,0,*75
1519041630.77,62416,11.56,73168.3,1.83,-36.31,-36.31,0,*70
1519041632.0,62417,11.56,73168.8,1.85,-35.89,-35.71,0,*70
1519041633.26,62418,11.56,73174.5,1.85,-36.25,-36.01,0,*7E
1519041634.46,62419,11.56,73172.3,1.91,-36.43,-36.43,0,*7C
1519041635.73,62420,11.56,73170.3,1.89,-36.25,-36.01,0,*79
1519041636.98,62421,11.56,73168.8,1.83,-36.61,-36.49,0,*7E
1519041638.2,62422,11.56,73170.8,1.83,-36.61,-36.43,0,*77
1519041639.41,62423,11.56,73172.3,1.83,-36.67,-36.67,0,*76
1519041640.61,62424,11.56,73170.0,1.83,-36.43,-36.43,0,*71
1519041641.87,62425,11.56,73174.3,1.85,-36.79,-36.67,0,*79
1519041643.12,62426,11.56,73172.5,1.85,-36.13,-35.89,0,*75
1519041644.37,62427,11.56,73170.8,1.85,-36.49,-36.43,0,*7E
1519041645.6,62428,11.56,73168.8,1.85,-37.15,-37.03,0,*7C
1519041646.88,62429,11.56,73166.5,1.85,-36.25,-36.25,0,*7A
1519041648.14,62430,11.56,73170.0,1.85,-36.13,-35.89,0,*72
1519041649.38,62431,11.56,73168.3,1.85,-36.13,-36.07,0,*76
1519041650.64,62432,11.56,73168.5,1.85,-36.31,-36.25,0,*75
1519041651.89,62433,11.56,73168.8,1.85,-36.13,-36.01,0,*72
1519041653.14,62434,11.56,73168.8,1.85,-36.67,-36.49,0,*7A
1519041654.36,62435,11.56,73170.3,1.85,-36.01,-35.71,0,*73
1519041655.64,62436,11.56,73170.5,1.85,-35.83,-35.53,0,*79
1519041656.91,62437,11.56,73168.0,1.85,-35.53,-35.35,0,*75
1519041658.15,62438,11.56,73168.3,1.85,-35.53,-35.47,0,*7F
1519041659.38,62439,11.56,73166.5,1.89,-36.19,-36.01,0,*7E
1519041660.63,62440,11.56,73172.0,1.89,-36.61,-36.43,0,*79
1519041661.88,62441,11.56,73166.3,1.89,-36.73,-36.61,0,*7B
1519041663.13,62442,11.56,73170.5,1.85,-36.49,-36.43,0,*7D
1519041664.41,62443,11.56,73172.0,1.85,-36.61,-36.49,0,*7C
1519041665.64,62444,11.56,73170.8,1.85,-36.85,-36.67,0,*7D
1519041666.87,62445,11.56,73168.3,1.85,-36.43,-36.31,0,*75
1519041668.09,62446,11.56,73166.8,1.85,-36.97,-36.97,0,*73
1519041669.32,62447,11.56,73166.5,1.85,-36.97,-36.97,0,*72
1519041670.57,62448,11.56,73168.0,1.85,-36.85,-36.79,0,*7E
1519041671.77,62449,11.56,73170.8,1.83,-36.97,-36.85,0,*79
1519041673.02,62450,11.56,73166.8,1.85,-36.85,-36.79,0,*77
1519041674.28,62451,11.56,73164.8,1.85,-36.01,-35.83,0,*7C
1519041675.53,62452,11.56,73170.0,1.85,-36.43,-36.49,0,*7C
1519041676.75,62453,11.56,73170.8,1.85,-37.27,-37.15,0,*76
1519041677.98,62454,11.56,73168.5,1.83,-37.27,-37.21,0,*70
1519041679.21,62455,11.56,73168.0,1.81,-36.31,-36.31,0,*75
1519041680.44,62456,11.56,73166.3,1.81,-36.07,-35.89,0,*73
1519041681.69,62457,11.56,73168.3,1.81,-35.59,-35.41,0,*7E
1519041682.94,62458,11.56,73168.5,1.89,-35.77,-35.41,0,*75
1519041684.19,62459,11.56,73170.0,1.83,-35.53,-35.35,0,*7B
1519041685.43,62460,11.56,73172.0,1.85,-35.53,-35.29,0,*7A
1519041686.68,62461,11.56,73168.0,1.85,-35.53,-35.47,0,*73
1519041687.9,62462,11.56,73170.3,1.85,-35.89,-35.71,0,*72
1519041689.17,62463,11.56,73168.8,1.85,-36.79,-36.79,0,*74
1519041690.39,62464,11.56,73172.5,1.85,-36.97,-36.85,0,*70
1519041691.61,62465,11.56,73170.5,1.85,-37.45,-37.45,0,*72
1519041692.88,62466,11.56,73168.8,1.85,-36.79,-36.61,0,*78
1519041694.13,62467,11.56,73168.5,1.83,-36.79,-36.61,0,*7F
1519041695.36,62468,11.56,73168.8,1.83,-36.67,-36.61,0,*7F
1519041696.56,62469,11.56,73168.0,1.83,-37.15,-36.97,0,*73
1519041697.79,62470,11.56,73168.5,1.83,-35.89,-35.83,0,*7A
1519041699.02,62471,11.56,73172.3,1.83,-36.31,-36.25,0,*74
1519041700.25,62472,11.56,73168.5,1.83,-36.31,-36.25,0,*77
1519041701.48,62473,11.56,73172.3,1.83,-36.61,-36.43,0,*73
1519041702.68,62474,11.56,73170.5,1.83,-36.43,-36.43,0,*74
1519041703.93,62475,11.56,73168.5,1.81,-37.27,-37.09,0,*7B
1519041705.18,62476,11.56,73170.0,1.81,-36.49,-36.07,0,*7E
1519041706.44,62477,11.56,73168.8,1.79,-36.25,-36.13,0,*77
1519041707.69,62478,11.56,73170.8,1.81,-36.67,-36.49,0,*76
1519041708.94,62479,11.56,73168.5,1.81,-36.49,-36.67,0,*77
1519041710.21,62480,11.56,73168.5,1.81,-36.49,-36.37,0,*74
1519041711.44,62481,11.56,73170.8,1.81,-36.19,-36.07,0,*73
1519041712.71,62482,11.56,73168.0,1.81,-36.49,-36.37,0,*76
1519041713.93,62483,11.56,73168.0,1.79,-36.43,-36.37,0,*7A
1519041715.21,62484,11.56,73170.5,1.81,-36.49,-36.37,0,*70
1519041716.42,62485,11.56,73168.5,1.81,-35.59,-35.59,0,*78
1519041717.68,62486,11.56,73168.8,1.81,-36.13,-35.77,0,*7A
1519041718.95,62487,11.56,73170.8,1.81,-37.69,-37.69,0,*7A
1519041720.16,62488,11.56,73170.0,1.79,-37.87,-37.87,0,*72
1519041721.39,62489,11.56,73170.3,1.79,-37.51,-37.33,0,*77
1519041722.64,62490,11.56,73168.3,1.79,-36.91,-36.79,0,*7D
1519041723.87,62491,11.56,73172.0,1.79,-37.33,-37.09,0,*73
1519041725.08,62492,11.56,73168.3,1.75,-35.89,-35.71,0,*72
1519041726.31,62493,11.56,73170.8,1.79,-35.29,-35.07,0,*74
1519041727.56,62494,11.56,73170.0,1.79,-36.25,-36.37,0,*7C
1519041728.81,62495,11.56,73170.0,1.79,-35.41,-35.23,0,*7A
1519041730.03,62496,11.56,73168.3,1.81,-35.17,-34.89,0,*7C
1519041731.29,62497,11.56,73168.0,1.81,-35.41,-35.23,0,*7F
1519041732.54,62498,11.56,73170.5,1.81,-35.95,-35.71,0,*7E
1519041733.83,62499,11.56,73168.8,1.81,-37.21,-37.21,0,*75
1519041735.06,62500,11.56,73170.8,1.81,-37.87,-37.87,0,*74
1519041736.31,62501,11.56,73170.3,1.81,-37.99,-37.87,0,*7A
1519041737.52,62502,11.56,73170.0,1.79,-36.43,-36.19,0,*7E
1519041738.73,62503,11.56,73170.0,1.79,-36.55,-36.55,0,*70
1519041739.94,62504,11.56,73170.8,1.79,-37.57,-37.33,0,*75
1519041741.19,62505,11.56,73170.3,1.77,-37.27,-37.09,0,*74
1519041742.42,62506,11.56,73168.0,1.77,-37.15,-36.97,0,*70
1519041743.65,62507,11.56,73170.8,1.77,-36.43,-36.19,0,*75
1519041744.89,62508,11.63,73170.8,1.77,-37.27,-37.15,0,*74
1519041746.11,62509,11.56,73170.3,1.75,-37.63,-37.45,0,*72
1519041747.37,62510,11.56,73166.3,1.77,-37.09,-36.97,0,*7A
1519041748.62,62511,11.56,73170.5,1.77,-36.01,-35.65,0,*7C
1519041749.88,62512,11.63,73174.3,1.77,-36.01,-35.83,0,*77
1519041751.14,62513,11.56,73168.5,1.77,-36.55,-36.37,0,*7B
1519041752.37,62514,11.56,73170.8,1.77,-36.43,-36.43,0,*78
1519041753.57,62515,11.56,73170.0,1.75,-36.31,-36.07,0,*7E
1519041754.83,62516,11.56,73170.0,1.77,-36.25,-36.19,0,*75
1519041756.07,62517,11.63,73170.8,1.79,-36.37,-36.01,0,*70
1519041757.33,62518,11.56,73170.5,1.77,-36.01,-35.95,0,*7A
1519041758.56,62519,11.56,73168.0,1.77,-37.27,-37.27,0,*75
1519041759.8,62520,11.56,73168.5,1.77,-36.73,-36.55,0,*7B
1519041761.04,62521,11.56,73168.8,1.77,-36.01,-35.77,0,*7C
1519041762.28,62522,11.56,73168.8,1.79,-36.19,-35.95,0,*74
1519041763.56,62523,11.56,73168.8,1.81,-36.13,-35.95,0,*78
1519041764.78,62524,11.56,73170.0,1.79,-35.59,-35.41,0,*7C
1519041765.99,62525,11.56,73166.5,1.79,-35.59,-35.29,0,*73
1519041767.24,62526,11.56,73170.8,1.81,-35.17,-35.07,0,*71
1519041768.46,62527,11.56,73168.5,1.81,-36.31,-36.31,0,*71
1519041769.7,62528,11.56,73166.8,1.81,-36.55,-36.55,0,*7E
1519041770.94,62529,11.63,73170.8,1.81,-36.37,-36.07,0,*7C
1519041772.17,62530,11.56,73168.3,1.81,-35.77,-35.59,0,*7B
1519041773.42,62531,11.56,73166.3,1.81,-36.55,-36.49,0,*7B
1519041774.65,62532,11.56,73168.8,1.79,-36.73,-36.79,0,*78
1519041775.89,62533,11.56,73168.5,1.81,-36.55,-36.55,0,*74
1519041777.1,62534,11.63,73172.3,1.79,-36.85,-36.73,0,*7D
1519041778.37,62535,11.56,73170.8,1.81,-36.49,-36.37,0,*7B
1519041779.6,62536,11.56,73168.3,1.83,-36.01,-35.83,0,*7A
1519041780.83,62537,11.63,73168.3,1.81,-36.67,-36.55,0,*71
1519041782.11,62538,11.63,73174.3,1.81,-36.37,-36.13,0,*79
1519041783.36,62539,11.63,73172.5,1.81,-36.37,-36.31,0,*78
1519041784.59,62540,11.56,73168.8,1.81,-36.73,-36.67,0,*75
1519041785.86,62541,11.56,73170.8,1.81,-36.49,-36.37,0,*78
1519041787.09,62542,11.56,73168.8,1.81,-36.85,-36.73,0,*7B
1519041788.32,62543,11.56,73170.5,1.81,-36.67,-36.55,0,*72
1519041789.56,62544,11.63,73170.5,1.81,-36.67,-36.55,0,*75
1519041790.83,62545,11.56,73170.5,1.81,-36.61,-36.49,0,*7F
1519041792.08,62546,11.56,73170.5,1.81,-36.49,-36.31,0,*79
1519041793.29,62547,11.56,73170.0,1.79,-36.73,-36.67,0,*75
1519041794.57,62548,11.63,73168.3,1.81,-36.49,-36.49,0,*78
1519041795.8,62549,11.56,73170.5,1.81,-36.55,-36.55,0,*79
1519041797.02,62550,11.63,73168.0,1.81,-36.73,-36.85,0,*78
1519041798.25,62551,11.56,73170.5,1.81,-36.85,-36.73,0,*79
1519041799.51,62552,11.63,73170.8,1.79,-36.49,-36.37,0,*7D
1519041800.78,62553,11.56,73168.8,1.81,-36.37,-36.13,0,*74
1519041802.03,62554,11.63,73170.8,1.81,-36.55,-36.37,0,*71
1519041803.28,62555,11.56,73166.8,1.81,-36.67,-36.49,0,*78
1519041804.48,62556,11.56,73168.3,1.79,-36.43,-36.43,0,*70
1519041805.72,62557,11.63,73170.0,1.81,-36.73,-36.55,0,*72
1519041806.92,62558,11.63,73168.5,1.79,-36.43,-36.19,0,*71
1519041808.18,62559,11.56,73170.0,1.79,-36.13,-35.83,0,*75
1519041809.43,62560,11.56,73166.0,1.81,-36.73,-36.91,0,*7E
1519041810.66,62561,11.63,73170.5,1.81,-36.31,-36.31,0,*73
1519041811.89,62562,11.56,73168.8,1.81,-36.55,-36.31,0,*72
1519041813.12,62563,11.63,73170.0,1.81,-36.73,-36.55,0,*75
1519041814.38,62564,11.63,73170.3,1.81,-36.13,-35.89,0,*76
1519041815.63,62565,11.63,73170.3,1.81,-36.67,-36.49,0,*7B
1519041816.9,62566,11.63,73172.5,1.81,-37.09,-36.91,0,*74
1519041818.18,62567,11.56,73168.8,1.81,-36.37,-36.13,0,*73
1519041819.4,62568,11.56,73166.3,1.81,-36.19,-36.31,0,*70
1519041820.61,62569,11.56,73164.8,1.79,-36.97,-36.97,0,*7C
1519041821.84,62570,11.56,73164.3,1.81,-36.85,-36.73,0,*7A
1519041823.07,62571,11.63,73170.5,1.79,-37.27,-37.09,0,*79
1519041824.32,62572,11.56,73168.5,1.79,-37.51,-37.39,0,*78
1519041825.53,62573,11.56,73166.0,1.79,-36.55,-36.43,0,*70
1519041826.77,62574,11.63,73168.3,1.79,-36.25,-36.01,0,*76
1519041828.0,62575,11.56,73166.5,1.79,-36.37,-36.19,0,*7D
1519041829.23,62576,11.63,73166.5,1.79,-37.27,-37.09,0,*7E
1519041830.44,62577,11.63,73166.8,1.79,-36.55,-36.19,0,*7B
1519041831.69,62578,11.63,73170.0,1.79,-36.91,-36.79,0,*7A
1519041832.95,62579,11.56,73164.0,1.77,-36.61,-36.43,0,*73
1519041834.18,62580,11.63,73168.8,1.77,-37.15,-37.15,0,*75
1519041835.44,62581,11.56,73166.5,1.77,-36.91,-36.73,0,*78
1519041836.72,62582,11.63,73168.3,1.77,-36.91,-36.79,0,*71
1519041837.96,62583,11.63,73168.3,1.77,-36.73,-36.73,0,*76
1519041839.22,62584,11.56,73164.5,1.75,-38.29,-38.29,0,*73
1519041840.48,62585,11.56,73166.5,1.77,-37.57,-37.39,0,*78
1519041841.73,62586,11.63,73168.8,1.73,-37.63,-37.75,0,*70
1519041842.99,62587,11.63,73168.3,1.71,-37.87,-37.63,0,*7E
1519041844.24,62588,11.56,73166.5,1.71,-36.31,-36.13,0,*7B
1519041845.51,62589,11.63,73168.8,1.71,-36.25,-35.89,0,*7F
1519041846.76,62590,11.56,73164.0,1.73,-35.89,-35.65,0,*72
1519041848.02,62591,11.63,73166.5,1.73,-36.79,-36.79,0,*71
1519041849.26,62592,11.63,73168.5,1.73,-36.67,-36.67,0,*72
1519041850.51,62593,11.63,73170.3,1.73,-37.81,-37.75,0,*78
1519041851.77,62594,11.63,73170.5,1.71,-37.21,-36.97,0,*7A
1519041853.0,62595,11.56,73168.3,1.71,-36.31,-36.07,0,*72
1519041854.25,62596,11.56,73164.3,1.71,-35.23,-35.17,0,*73
1519041855.47,62597,11.63,73170.5,1.73,-36.07,-36.07,0,*77
1519041856.72,62598,11.63,73166.8,1.71,-37.45,-37.39,0,*71
1519041857.97,62599,11.63,73166.3,1.73,-37.45,-37.39,0,*72
1519041859.2,62600,11.63,73170.8,1.71,-36.55,-36.31,0,*7A
1519041860.46,62601,11.63,73170.3,1.71,-36.13,-35.77,0,*78
1519041861.73,62602,11.63,73168.3,1.73,-35.83,-35.65,0,*70
1519041863.0,62603,11.63,73166.8,1.73,-35.53,-35.35,0,*79
1519041864.22,62604,11.63,73168.8,1.73,-35.71,-35.47,0,*7B
1519041865.45,62605,11.63,73166.3,1.75,-35.89,-35.65,0,*7B
1519041866.66,62606,11.63,73170.5,1.75,-35.47,-35.29,0,*72
1519041867.87,62607,11.63,73168.8,1.75,-35.29,-35.17,0,*76
1519041869.15,62608,11.63,73168.8,1.77,-35.23,-34.95,0,*7A
1519041870.43,62609,11.63,73168.5,1.77,-34.83,-34.53,0,*7A
1519041871.69,62610,11.63,73168.5,1.77,-34.83,-34.71,0,*72
1519041872.94,62611,11.63,73170.8,1.81,-34.83,-34.41,0,*79
1519041874.2,62612,11.56,73166.5,1.81,-34.77,-34.65,0,*77
1519041875.43,62613,11.63,73168.3,1.81,-35.01,-34.77,0,*75
1519041876.64,62614,11.63,73168.0,1.81,-35.17,-34.89,0,*74
1519041877.91,62615,11.63,73168.3,1.85,-35.53,-35.35,0,*77
1519041879.16,62616,11.63,73170.5,1.85,-35.83,-35.47,0,*7C
1519041880.41,62617,11.63,73168.8,1.85,-35.71,-35.53,0,*75
1519041881.64,62618,11.63,73166.5,1.85,-35.89,-35.71,0,*7D
1519041882.86,62619,11.63,73168.8,1.85,-36.01,-35.71,0,*7F
1519041884.12,62620,11.63,73166.8,1.85,-36.01,-35.83,0,*78
1519041885.39,62621,11.63,73170.5,1.85,-36.61,-36.49,0,*7A
1519041886.67,62622,11.63,73166.8,1.85,-36.13,-35.83,0,*79
1519041887.9,62623,11.63,73170.0,1.89,-36.01,-35.77,0,*7C
1519041889.16,62624,11.63,73168.3,1.85,-36.25,-36.01,0,*73
1519041890.39,62625,11.56,73164.3,1.89,-36.19,-36.01,0,*71
1519041891.62,62626,11.56,73166.3,1.89,-36.73,-36.43,0,*78
1519041892.9,62627,11.63,73166.8,1.89,-36.37,-36.25,0,*79
1519041894.12,62628,11.63,73166.5,1.89,-36.55,-36.43,0,*72
1519041895.4,62629,11.63,73168.5,1.85,-36.79,-36.61,0,*71
1519041896.67,62630,11.63,73166.3,1.85,-36.79,-36.61,0,*79
1519041897.87,62631,11.63,73164.3,1.83,-36.31,-36.07,0,*72
1519041899.13,62632,11.63,73166.5,1.85,-36.25,-36.01,0,*74
1519041900.38,62633,11.63,73170.0,1.85,-36.43,-36.49,0,*79
1519041901.61,62634,11.63,73168.5,1.85,-36.01,-35.89,0,*77
1519041902.84,62635,11.63,73164.0,1.85,-36.43,-36.31,0,*70
1519041904.09,62636,11.63,73168.0,1.83,-36.61,-36.49,0,*7A
1519041905.37,62637,11.63,73166.3,1.85,-36.61,-36.61,0,*77
1519041906.64,62638,11.63,73168.5,1.85,-36.49,-36.61,0,*72
1519041907.89,62639,11.63,73164.5,1.85,-36.25,-36.07,0,*79
1519041909.12,62640,11.63,73168.0,1.85,-35.89,-35.71,0,*70
1519041910.34,62641,11.63,73168.5,1.83,-35.71,-35.65,0,*75
1519041911.59,62642,11.63,73164.0,1.85,-36.25,-36.31,0,*70
1519041912.85,62643,11.63,73164.0,1.89,-36.61,-36.55,0,*7F
1519041914.08,62644,11.63,73166.8,1.85,-36.43,-36.43,0,*73
1519041915.33,62645,11.63,73164.8,1.85,-36.85,-36.79,0,*71
1519041916.53,62646,11.63,73166.3,1.83,-36.97,-36.85,0,*74
1519041917.75,62647,11.63,73166.3,1.85,-36.31,-36.07,0,*75
1519041919.03,62648,11.63,73166.5,1.85,-36.61,-36.61,0,*7F
1519041920.31,62649,11.63,73166.8,1.85,-36.25,-36.25,0,*7E
1519041921.58,62650,11.63,73166.3,1.85,-36.49,-36.49,0,*76
1519041922.86,62651,11.63,73166.5,1.85,-36.61,-36.61,0,*77
1519041924.09,62652,11.63,73166.3,1.83,-36.67,-36.49,0,*7E
1519041925.31,62653,11.63,73164.5,1.85,-36.31,-36.07,0,*70
1519041926.55,62654,11.63,73164.5,1.85,-36.13,-36.07,0,*77
1519041927.8,62655,11.63,73164.8,1.85,-35.83,-35.71,0,*7E
1519041929.06,62656,11.63,73170.0,1.85,-36.25,-36.07,0,*70
1519041930.3,62657,11.63,73164.5,1.83,-36.25,-35.89,0,*72
1519041931.54,62658,11.63,73164.5,1.85,-35.53,-35.47,0,*7B
1519041932.79,62659,11.63,73168.0,1.85,-36.01,-35.83,0,*76
1519041934.02,62660,11.63,73166.8,1.85,-35.71,-35.47,0,*70
1519041935.29,62661,11.63,73164.8,1.85,-35.65,-35.53,0,*71
1519041936.56,62662,11.63,73164.8,1.89,-35.95,-35.65,0,*74
1519041937.79,62663,11.63,73168.0,1.89,-36.19,-36.01,0,*73
1519041939.05,62664,11.56,73160.3,1.91,-36.37,-36.25,0,*77
1519041940.27,62665,11.63,73166.8,1.91,-36.73,-36.55,0,*71
1519041941.49,62666,11.63,73166.0,1.89,-36.43,-36.19,0,*70
1519041942.71,62667,11.63,73166.0,1.85,-36.31,-36.07,0,*77
1519041943.98,62668,11.63,73170.0,1.85,-36.25,-35.89,0,*78
1519041945.23,62669,11.63,73166.8,1.85,-36.25,-36.07,0,*7C
1519041946.48,62670,11.63,73166.0,1.85,-35.89,-35.65,0,*76
1519041947.75,62671,11.63,73164.8,1.85,-36.13,-35.83,0,*7F
1519041949.01,62672,11.63,73166.5,1.89,-36.07,-35.83,0,*75
1519041950.27,62673,11.63,73164.3,1.89,-35.95,-35.77,0,*77
1519041951.52,62674,11.63,73166.0,1.89,-35.83,-35.59,0,*7B
1519041952.77,62675,11.63,73166.8,1.89,-35.83,-35.59,0,*7A
1519041953.98,62676,11.63,73164.3,1.91,-36.01,-35.77,0,*75
1519041955.23,62677,11.63,73168.3,1.89,-35.65,-35.47,0,*7F
1519041956.47,62678,11.63,73164.3,1.89,-35.59,-35.23,0,*7D
1519041957.72,62679,11.63,73166.8,1.89,-35.83,-35.59,0,*76
1519041958.93,62680,11.63,73166.5,1.91,-36.73,-36.55,0,*7A
1519041960.2,62681,11.63,73166.0,1.89,-36.91,-36.79,0,*70
1519041961.43,62682,11.63,73170.8,1.89,-36.73,-36.43,0,*76
1519041962.71,62683,11.63,73164.5,1.89,-36.37,-36.37,0,*74
1519041963.91,62684,11.63,73164.8,1.91,-36.43,-36.43,0,*7A
1519041965.12,62685,11.63,73166.0,1.91,-36.97,-36.97,0,*7B
1519041966.32,62686,11.63,73164.5,1.91,-36.55,-36.43,0,*7F
1519041967.58,62687,11.63,73166.0,1.89,-36.79,-36.55,0,*7E
1519041968.83,62688,11.63,73164.3,1.89,-36.79,-36.73,0,*75
1519041970.08,62689,11.63,73166.0,1.89,-36.73,-36.61,0,*7D
1519041971.35,62690,11.63,73168.5,1.89,-36.79,-36.79,0,*76
1519041972.6,62691,11.63,73166.5,1.89,-36.07,-35.83,0,*78
1519041973.86,62692,11.63,73164.8,1.89,-36.19,-35.95,0,*73
1519041975.12,62693,11.63,73164.3,1.89,-36.43,-36.25,0,*75
1519041976.34,62694,11.63,73166.5,1.85,-36.97,-36.85,0,*7D
1519041977.57,62695,11.63,73164.8,1.83,-36.67,-36.49,0,*75
1519041978.81,62696,11.63,73168.5,1.85,-37.39,-37.27,0,*73
1519041980.04,62697,11.63,73164.3,1.83,-36.49,-36.43,0,*71
1519041981.27,62698,11.63,73164.5,1.83,-36.49,-36.31,0,*7B
1519041982.5,62699,11.63,73166.3,1.83,-36.43,-36.25,0,*75
1519041983.73,62700,11.63,73166.3,1.83,-36.61,-36.31,0,*71
1519041984.98,62701,11.63,73164.8,1.83,-36.13,-35.83,0,*7F
1519041986.23,62702,11.63,73164.8,1.85,-36.49,-36.31,0,*7F
1519041987.48,62703,11.63,73166.3,1.83,-36.61,-36.49,0,*7D
1519041988.71,62704,11.63,73162.3,1.83,-36.61,-36.31,0,*75
1519041989.94,62705,11.63,73166.3,1.83,-36.01,-35.83,0,*78
1519041991.17,62706,11.63,73164.8,1.83,-36.25,-36.07,0,*72
1519041992.37,62707,11.63,73164.8,1.83,-35.71,-35.47,0,*76
1519041993.6,62708,11.63,73164.5,1.85,-35.89,-35.71,0,*7D
1519041994.82,62709,11.63,73168.5,1.83,-36.61,-36.31,0,*78
1519041996.1,62710,11.63,73166.3,1.85,-35.83,-35.53,0,*7E
1519041997.32,62711,11.63,73166.5,1.85,-36.01,-35.71,0,*76
1519041998.58,62712,11.63,73164.8,1.85,-35.83,-35.47,0,*79
1519041999.81,62713,11.63,73166.8,1.85,-36.07,-35.89,0,*75
1519042001.07,62714,11.63,73166.5,1.85,-36.31,-36.25,0,*72
1519042002.33,62715,11.63,73166.5,1.85,-36.07,-35.83,0,*79
1519042003.55,62716,11.63,73164.8,1.85,-36.01,-35.71,0,*71
1519042004.79,62717,11.63,73170.0,1.83,-36.25,-36.01,0,*74
1519042006.06,62718,11.63,73164.3,1.85,-35.83,-35.65,0,*73
1519042007.31,62719,11.63,73166.3,1.85,-36.49,-36.43,0,*70
1519042008.56,62720,11.63,73164.3,1.85,-36.49,-36.43,0,*7A
1519042009.82,62721,11.63,73162.3,1.89,-36.25,-36.01,0,*7B
1519042011.07,62722,11.63,73166.5,1.89,-36.43,-36.37,0,*7D
1519042012.35,62723,11.63,73164.3,1.85,-37.21,-37.21,0,*73
1519042013.61,62724,11.63,73166.8,1.85,-36.01,-35.83,0,*7D
1519042014.87,62725,11.63,73166.8,1.85,-37.21,-37.15,0,*72
1519042016.09,62726,11.63,73162.5,1.85,-36.43,-36.43,0,*76
1519042017.35,62727,11.63,73166.0,1.85,-36.85,-36.61,0,*7D
1519042018.6,62728,11.63,73166.5,1.83,-36.13,-35.83,0,*74
1519042019.83,62729,11.63,73166.8,1.83,-36.07,-35.83,0,*70
1519042021.06,62730,11.63,73168.5,1.83,-35.89,-35.53,0,*70
1519042022.3,62731,11.63,73166.0,1.85,-35.53,-35.29,0,*7D
1519042023.53,62732,11.63,73164.5,1.89,-35.29,-35.13,0,*76
1519042024.76,62733,11.63,73168.0,1.89,-35.77,-35.47,0,*7D
1519042026.01,62734,11.63,73162.8,1.89,-35.47,-35.23,0,*7B
1519042027.26,62735,11.63,73162.8,1.89,-36.01,-35.95,0,*76
1519042028.5,62736,11.63,73168.0,1.89,-36.73,-36.55,0,*7F
1519042029.75,62737,11.63,73166.5,1.89,-35.07,-34.77,0,*7C
1519042030.96,62738,11.63,73168.0,1.91,-35.29,-35.13,0,*75
1519042032.2,62739,11.63,73166.5,1.91,-36.25,-36.01,0,*7B
1519042033.43,62740,11.63,73166.5,1.91,-36.07,-35.83,0,*7C
1519042034.68,62741,11.63,73166.0,1.91,-37.69,-37.69,0,*72
1519042035.92,62742,11.63,73166.0,1.91,-36.19,-35.95,0,*76
1519042037.17,62743,11.63,73170.3,1.89,-35.95,-35.59,0,*79
1519042038.42,62744,11.63,73164.8,1.91,-36.79,-36.79,0,*77
1519042039.7,62745,11.63,73162.3,1.89,-37.39,-37.21,0,*76
1519042040.93,62746,11.63,73164.3,1.91,-37.09,-36.97,0,*73
1519042042.15,62747,11.63,73164.8,1.89,-36.97,-36.97,0,*7D
1519042043.38,62748,11.63,73162.8,1.89,-37.15,-36.97,0,*79
1519042044.6,62749,11.63,73170.0,1.85,-37.03,-36.85,0,*70
1519042045.85,62750,11.63,73166.3,1.85,-36.67,-36.49,0,*7B
1519042047.12,62751,11.63,73164.8,1.85,-36.79,-36.79,0,*76
1519042048.37,62752,11.63,73166.0,1.85,-36.97,-36.79,0,*75
1519042049.59,62753,11.63,73164.0,1.85,-37.03,-36.85,0,*7B
1519042050.85,62754,11.63,73166.8,1.85,-37.21,-37.15,0,*74
1519042052.11,62755,11.63,73164.8,1.83,-37.21,-37.21,0,*74
1519042053.31,62756,11.63,73166.3,1.83,-36.85,-36.85,0,*77
1519042054.58,62757,11.63,73164.3,1.85,-36.61,-36.49,0,*7A
1519042055.78,62758,11.63,73164.5,1.83,-36.97,-36.97,0,*79
1519042057.04,62759,11.63,73164.8,1.85,-37.21,-37.03,0,*7E
1519042058.24,62760,11.63,73168.5,1.83,-37.27,-37.15,0,*73
1519042059.45,62761,11.63,73166.5,1.83,-36.43,-36.43,0,*73
1519042060.7,62762,11.63,73166.5,1.83,-36.61,-36.61,0,*70
1519042061.9,62763,11.63,73164.8,1.83,-37.15,-36.97,0,*7A
1519042063.12,62764,11.63,73162.8,1.83,-36.97,-36.79,0,*76
1519042064.35,62765,11.63,73162.8,1.83,-36.79,-36.67,0,*78
1519042065.56,62766,11.63,73166.5,1.83,-36.67,-36.43,0,*72
1519042066.81,62767,11.63,73164.3,1.83,-36.79,-36.61,0,*7C
1519042068.04,62768,11.63,73166.0,1.83,-37.21,-37.15,0,*7D
1519042069.32,62769,11.63,73164.3,1.81,-37.21,-37.09,0,*73
1519042070.54,62770,11.63,73166.5,1.81,-37.33,-37.33,0,*71
1519042071.77,62771,11.63,73166.8,1.79,-37.39,-37.27,0,*78
1519042073.02,62772,11.63,73164.8,1.81,-37.21,-37.03,0,*73
1519042074.23,62773,11.63,73166.3,1.79,-37.33,-37.15,0,*71
1519042075.44,62774,11.63,73164.5,1.79,-37.27,-37.15,0,*73
1519042076.67,62775,11.63,73166.5,1.79,-37.69,-37.57,0,*7E
1519042077.9,62776,11.63,73166.0,1.77,-37.75,-37.57,0,*7E
1519042079.18,62777,11.63,73166.5,1.77,-36.91,-36.79,0,*79
1519042080.44,62778,11.63,73166.5,1.77,-36.97,-36.91,0,*76
1519042081.72,62779,11.63,73166.8,1.77,-36.37,-36.13,0,*77
1519042082.97,62780,11.63,73166.0,1.77,-36.73,-36.61,0,*74
1519042084.2,62781,11.63,73166.8,1.77,-37.33,-37.27,0,*73
1519042085.44,62782,11.63,73166.5,1.77,-37.27,-37.15,0,*74
1519042086.64,62783,11.63,73162.5,1.75,-37.33,-37.03,0,*75
1519042087.87,62784,11.63,73164.3,1.77,-36.97,-36.97,0,*73
1519042089.07,62785,11.63,73164.3,1.75,-36.97,-36.85,0,*73
1519042090.33,62786,11.63,73164.0,1.77,-36.91,-36.73,0,*7D
1519042091.57,62787,11.63,73166.8,1.75,-36.79,-36.67,0,*7D
1519042092.79,62788,11.63,73164.0,1.75,-36.79,-36.97,0,*7D
1519042094.02,62789,11.63,73164.5,1.75,-37.33,-37.21,0,*7F
1519042095.25,62790,11.63,73166.8,1.75,-37.39,-37.33,0,*7E
1519042096.46,62791,11.63,73168.0,1.75,-37.15,-37.15,0,*75
1519042097.69,62792,11.63,73164.0,1.75,-36.49,-36.43,0,*7C
1519042098.94,62793,11.63,73164.8,1.75,-36.79,-36.79,0,*77
1519042100.17,62794,11.63,73166.0,1.75,-36.85,-36.79,0,*73
1519042101.4,62795,11.63,73160.8,1.73,-36.85,-36.67,0,*7B
1519042102.62,62796,11.63,73166.3,1.73,-36.43,-36.07,0,*74
1519042103.85,62797,11.63,73166.8,1.73,-36.43,-36.19,0,*7A
1519042105.08,62798,11.63,73166.8,1.75,-36.25,-36.07,0,*7C